STARLINK-3800 (52379 NORAD) Tracking and Keplerian Element Data
This shows tracking and keplerian element data for the satellite.
Feedback or suggestion? Click here.
Element | Value |
Catalog | 52379 |
Name | STARLINK-3800 |
Epoch Orbit | 130 |
Epoch Day | 167.08334491 |
Epoch Year | 2022 |
RAAN | 202.6572 |
Inclination | 53.2136 |
Eccentricity | 0.0002678 |
Argument of Perigee | 9.6438 |
Mean Anonmoly | 301.1752 |
Mean Motion | 15.7320982 |
Decay Rate | 0.00057768 |
L1 | 1 52379U 22045BA 22167.08334491 .00057768 00000+0 41297-3 0 9997 |
L2 | 2 52379 53.2136 202.6572 0002678 9.6438 301.1752 15.73209820 1305 |
Live tracking and technical data element details for STARLINK-3800 (NORAD 52379). STARLINK-3800 can be tracked NOW for your location showing map with azimuth and elevation plus other details from your city location.
Track the satellite on the map from your city or location and see movement details for azimuth, elevation, latitude, longitude, range, height, and movement on the map or in text.
IsCatalogInMostPopularTable: catalog: 52379, numindb: 7
Update: records affected: 1
GetName: 52379 STARLINK-3800
Hit Count: updated at: Mon, 27 Jun 2022 06:03:38 GMT